Time,TemperatureF,DewpointF,PressureIn,WindDirection,WindDirectionDegrees,WindSpeedMPH,WindSpeedGustMPH,Humidity,HourlyPrecipIn,Conditions,Clouds,dailyrainin,SolarRadiationWatts/m^2,SoftwareType,DateUTC
2013-12-02 00:01:00,29.6,28.1,30.05,East,84,0.0,0.0,94,0.00,,,0.00,0,Wunderground v.1.15,2013-12-02 05:01:00,
2013-12-02 00:02:00,29.7,28.2,30.05,East,84,0.0,0.0,94,0.00,,,0.00,0,Wunderground v.1.15,2013-12-02 05:02:00,
2013-12-02 00:05:00,29.7,28.2,30.05,East,84,0.0,0.0,94,0.00,,,0.00,0,Wunderground v.1.15,2013-12-02 05:05:00,
2013-12-02 00:06:00,29.7,28.2,30.06,East,84,0.0,0.0,94,0.00,,,0.00,0,Wunderground v.1.15,2013-12-02 05:06:00,
2013-12-02 00:07:00,29.7,28.2,30.05,East,84,0.0,0.0,94,0.00,,,0.00,0,Wunderground v.1.15,2013-12-02 05:07:00,
2013-12-02 00:13:00,29.9,28.4,30.06,East,84,0.0,0.0,94,0.00,,,0.00,0,Wunderground v.1.15,2013-12-02 05:13:00,
2013-12-02 00:15:00,29.9,28.4,30.06,East,84,0.0,0.0,94,0.00,,,0.00,0,Wunderground v.1.15,2013-12-02 05:15:00,
2013-12-02 00:21:00,30.1,28.6,30.06,East,84,0.0,0.0,94,0.00,,,0.00,0,Wunderground v.1.15,2013-12-02 05:21:00,
2013-12-02 00:27:00,30.2,28.7,30.05,East,84,0.0,0.0,94,0.00,,,0.00,0,Wunderground v.1.15,2013-12-02 05:27:00,
2013-12-02 00:32:00,30.3,28.8,30.05,East,84,0.0,0.0,94,0.00,,,0.00,0,Wunderground v.1.15,2013-12-02 05:32:00,
2013-12-02 00:38:00,30.5,29.0,30.04,East,84,0.0,0.0,94,0.00,,,0.00,0,Wunderground v.1.15,2013-12-02 05:38:00,
2013-12-02 00:44:00,30.6,29.1,30.05,East,84,0.0,0.0,94,0.00,,,0.00,0,Wunderground v.1.15,2013-12-02 05:44:00,
2013-12-02 00:49:00,30.7,28.9,30.05,East,84,0.0,0.0,93,0.00,,,0.00,0,Wunderground v.1.15,2013-12-02 05:49:00,
2013-12-02 00:55:00,30.7,28.9,30.04,East,84,0.0,0.0,93,0.00,,,0.00,0,Wunderground v.1.15,2013-12-02 05:55:00,
2013-12-02 01:00:00,30.8,29.0,30.05,East,84,0.0,0.0,93,0.00,,,0.00,0,Wunderground v.1.15,2013-12-02 06:00:00,
2013-12-02 01:06:00,30.8,29.0,30.05,East,84,0.0,0.0,93,0.00,,,0.00,0,Wunderground v.1.15,2013-12-02 06:06:00,
2013-12-02 01:12:00,30.9,29.1,30.05,East,84,0.0,0.0,93,0.00,,,0.00,0,Wunderground v.1.15,2013-12-02 06:12:00,
2013-12-02 01:18:00,31.0,29.2,30.04,East,84,0.0,0.0,93,0.00,,,0.00,0,Wunderground v.1.15,2013-12-02 06:18:00,
2013-12-02 01:23:00,31.1,29.0,30.04,East,84,0.0,0.0,92,0.00,,,0.00,0,Wunderground v.1.15,2013-12-02 06:23:00,
2013-12-02 01:29:00,31.2,29.1,30.04,East,84,0.0,0.0,92,0.00,,,0.00,0,Wunderground v.1.15,2013-12-02 06:29:00,
2013-12-02 01:35:00,31.2,29.1,30.04,East,84,0.0,0.0,92,0.00,,,0.00,0,Wunderground v.1.15,2013-12-02 06:35:00,
2013-12-02 01:41:00,31.3,29.2,30.05,East,84,0.0,0.0,92,0.00,,,0.00,0,Wunderground v.1.15,2013-12-02 06:41:00,
2013-12-02 01:47:00,31.2,29.1,30.05,East,84,0.0,0.0,92,0.00,,,0.00,0,Wunderground v.1.15,2013-12-02 06:47:00,
2013-12-02 01:52:00,31.2,29.1,30.04,East,84,0.0,0.0,92,0.00,,,0.00,0,Wunderground v.1.15,2013-12-02 06:52:00,
2013-12-02 01:58:00,31.1,29.0,30.04,East,84,0.0,0.0,92,0.00,,,0.00,0,Wunderground v.1.15,2013-12-02 06:58:00,
2013-12-02 02:03:00,31.1,29.0,30.04,East,84,0.0,0.0,92,0.00,,,0.00,0,Wunderground v.1.15,2013-12-02 07:03:00,
2013-12-02 02:08:00,31.1,29.0,30.04,East,84,0.0,0.0,92,0.00,,,0.00,0,Wunderground v.1.15,2013-12-02 07:08:00,
2013-12-02 02:13:00,31.0,28.9,30.05,ESE,110,0.0,0.0,92,0.00,,,0.00,0,Wunderground v.1.15,2013-12-02 07:13:00,
2013-12-02 02:18:00,30.9,28.9,30.04,ESE,110,0.0,0.0,92,0.00,,,0.00,0,Wunderground v.1.15,2013-12-02 07:18:00,
2013-12-02 02:24:00,31.0,28.9,30.04,ESE,110,0.0,0.0,92,0.00,,,0.00,0,Wunderground v.1.15,2013-12-02 07:24:00,
2013-12-02 02:29:00,30.9,28.9,30.04,ESE,110,0.0,0.0,92,0.00,,,0.00,0,Wunderground v.1.15,2013-12-02 07:29:00,
2013-12-02 02:35:00,30.9,29.1,30.04,ESE,110,0.0,0.0,93,0.00,,,0.00,0,Wunderground v.1.15,2013-12-02 07:35:00,
2013-12-02 02:40:00,30.8,29.0,30.04,ESE,110,0.0,0.0,93,0.00,,,0.00,0,Wunderground v.1.15,2013-12-02 07:40:00,
2013-12-02 02:45:00,30.8,29.0,30.03,ESE,110,0.0,0.0,93,0.00,,,0.00,0,Wunderground v.1.15,2013-12-02 07:45:00,
2013-12-02 02:50:00,30.8,29.0,30.03,ESE,110,0.0,0.0,93,0.00,,,0.00,0,Wunderground v.1.15,2013-12-02 07:50:00,
2013-12-02 02:55:00,30.8,29.0,30.03,ESE,110,0.0,0.0,93,0.00,,,0.00,0,Wunderground v.1.15,2013-12-02 07:55:00,
2013-12-02 03:00:00,30.8,29.0,30.03,ESE,110,0.0,0.0,93,0.00,,,0.00,0,Wunderground v.1.15,2013-12-02 08:00:00,
2013-12-02 03:05:00,30.8,29.0,30.03,ESE,110,0.0,0.0,93,0.00,,,0.00,0,Wunderground v.1.15,2013-12-02 08:05:00,
2013-12-02 03:10:00,30.9,29.1,30.03,ESE,110,0.0,0.0,93,0.00,,,0.00,0,Wunderground v.1.15,2013-12-02 08:10:00,
2013-12-02 03:15:00,31.0,29.2,30.03,ESE,110,0.0,0.0,93,0.00,,,0.00,0,Wunderground v.1.15,2013-12-02 08:15:00,
2013-12-02 03:21:00,31.1,29.3,30.02,ESE,110,0.0,0.0,93,0.00,,,0.00,0,Wunderground v.1.15,2013-12-02 08:21:00,
2013-12-02 03:26:00,31.2,29.4,30.02,ESE,110,0.0,0.0,93,0.00,,,0.00,0,Wunderground v.1.15,2013-12-02 08:26:00,
2013-12-02 03:31:00,31.3,29.5,30.03,ESE,110,0.0,0.0,93,0.00,,,0.00,0,Wunderground v.1.15,2013-12-02 08:31:00,
2013-12-02 03:36:00,31.4,29.6,30.03,ESE,110,0.0,0.0,93,0.00,,,0.00,0,Wunderground v.1.15,2013-12-02 08:36:00,
2013-12-02 03:41:00,31.4,29.6,30.03,ESE,110,0.0,0.0,93,0.00,,,0.00,0,Wunderground v.1.15,2013-12-02 08:41:00,
2013-12-02 03:46:00,31.4,29.6,30.02,ESE,110,0.0,0.0,93,0.00,,,0.00,0,Wunderground v.1.15,2013-12-02 08:46:00,
2013-12-02 03:51:00,31.5,29.7,30.02,ESE,110,0.0,0.0,93,0.00,,,0.00,0,Wunderground v.1.15,2013-12-02 08:51:00,
2013-12-02 03:57:00,31.6,29.8,30.02,ESE,110,0.0,0.0,93,0.00,,,0.00,0,Wunderground v.1.15,2013-12-02 08:57:00,
2013-12-02 04:02:00,31.7,29.9,30.01,ESE,110,0.0,0.0,93,0.00,,,0.00,0,Wunderground v.1.15,2013-12-02 09:02:00,
2013-12-02 04:07:00,31.7,29.9,30.01,ESE,110,0.0,0.0,93,0.00,,,0.00,0,Wunderground v.1.15,2013-12-02 09:07:00,
2013-12-02 04:12:00,31.8,30.0,30.01,ESE,110,0.0,0.0,93,0.00,,,0.00,0,Wunderground v.1.15,2013-12-02 09:12:00,
2013-12-02 04:17:00,31.8,30.0,30.01,ESE,110,0.0,0.0,93,0.00,,,0.00,0,Wunderground v.1.15,2013-12-02 09:17:00,
2013-12-02 04:22:00,31.8,30.0,30.01,ESE,110,0.0,0.0,93,0.00,,,0.00,0,Wunderground v.1.15,2013-12-02 09:22:00,
2013-12-02 04:27:00,31.9,29.8,30.00,ESE,110,0.0,0.0,92,0.00,,,0.00,0,Wunderground v.1.15,2013-12-02 09:27:00,
2013-12-02 04:32:00,31.9,30.1,30.00,ESE,110,0.0,0.0,93,0.00,,,0.00,0,Wunderground v.1.15,2013-12-02 09:32:00,
2013-12-02 04:37:00,32.0,30.2,30.00,ESE,110,0.0,0.0,93,0.00,,,0.00,0,Wunderground v.1.15,2013-12-02 09:37:00,
2013-12-02 04:42:00,32.0,30.2,30.00,ESE,110,0.0,0.0,93,0.00,,,0.00,0,Wunderground v.1.15,2013-12-02 09:42:00,
2013-12-02 04:47:00,32.0,29.9,30.01,ESE,110,0.0,0.0,92,0.00,,,0.00,0,Wunderground v.1.15,2013-12-02 09:47:00,
2013-12-02 04:52:00,32.0,29.9,30.00,ESE,110,0.0,0.0,92,0.00,,,0.00,0,Wunderground v.1.15,2013-12-02 09:52:00,
2013-12-02 04:57:00,32.1,30.0,30.00,ESE,110,0.0,0.0,92,0.00,,,0.00,0,Wunderground v.1.15,2013-12-02 09:57:00,
2013-12-02 05:02:00,32.1,30.0,30.00,ESE,110,0.0,0.0,92,0.00,,,0.00,0,Wunderground v.1.15,2013-12-02 10:02:00,
2013-12-02 05:07:00,32.1,30.0,30.00,ESE,110,0.0,0.0,92,0.00,,,0.00,0,Wunderground v.1.15,2013-12-02 10:07:00,
2013-12-02 05:12:00,32.2,30.1,30.00,ESE,110,0.0,0.0,92,0.00,,,0.00,0,Wunderground v.1.15,2013-12-02 10:12:00,
2013-12-02 05:17:00,32.2,30.1,30.00,ESE,110,0.0,0.0,92,0.00,,,0.00,0,Wunderground v.1.15,2013-12-02 10:17:00,
2013-12-02 05:22:00,32.2,30.1,30.00,ESE,110,0.0,0.0,92,0.00,,,0.00,0,Wunderground v.1.15,2013-12-02 10:22:00,
2013-12-02 05:27:00,32.3,30.2,30.00,ESE,110,0.0,0.0,92,0.00,,,0.00,0,Wunderground v.1.15,2013-12-02 10:27:00,
2013-12-02 05:32:00,32.3,30.2,30.00,ESE,110,0.0,0.0,92,0.00,,,0.00,0,Wunderground v.1.15,2013-12-02 10:32:00,
2013-12-02 05:37:00,32.3,30.5,30.00,ESE,110,0.0,0.0,93,0.00,,,0.00,0,Wunderground v.1.15,2013-12-02 10:37:00,
2013-12-02 05:42:00,32.3,30.5,30.00,ESE,110,0.0,0.0,93,0.00,,,0.00,0,Wunderground v.1.15,2013-12-02 10:42:00,
2013-12-02 05:47:00,32.4,30.6,30.01,ESE,110,0.0,0.0,93,0.00,,,0.00,0,Wunderground v.1.15,2013-12-02 10:47:00,
2013-12-02 05:52:00,32.3,30.2,30.00,ESE,110,0.0,0.0,92,0.00,,,0.00,0,Wunderground v.1.15,2013-12-02 10:52:00,
2013-12-02 05:58:00,32.4,30.3,30.00,ESE,110,0.0,0.0,92,0.00,,,0.00,0,Wunderground v.1.15,2013-12-02 10:58:00,
2013-12-02 06:03:00,32.4,30.6,30.00,ESE,110,0.0,0.0,93,0.00,,,0.00,0,Wunderground v.1.15,2013-12-02 11:03:00,
2013-12-02 06:08:00,32.4,30.6,30.00,ESE,110,0.0,0.0,93,0.00,,,0.00,0,Wunderground v.1.15,2013-12-02 11:08:00,
2013-12-02 06:13:00,32.4,30.6,30.00,ESE,110,0.0,0.0,93,0.00,,,0.00,0,Wunderground v.1.15,2013-12-02 11:13:00,
2013-12-02 06:18:00,32.5,30.7,30.00,ESE,110,0.0,0.0,93,0.00,,,0.00,0,Wunderground v.1.15,2013-12-02 11:18:00,
2013-12-02 06:23:00,32.5,30.7,30.00,ESE,110,0.0,0.0,93,0.00,,,0.00,0,Wunderground v.1.15,2013-12-02 11:23:00,
2013-12-02 06:28:00,32.5,30.7,30.00,ESE,110,0.0,0.0,93,0.00,,,0.00,0,Wunderground v.1.15,2013-12-02 11:28:00,
2013-12-02 06:33:00,32.5,30.7,30.00,ESE,110,0.0,0.0,93,0.00,,,0.00,0,Wunderground v.1.15,2013-12-02 11:33:00,
2013-12-02 06:38:00,32.5,30.7,30.01,ESE,110,0.0,0.0,93,0.00,,,0.00,0,Wunderground v.1.15,2013-12-02 11:38:00,
2013-12-02 06:43:00,32.6,30.8,30.01,ESE,110,0.0,0.0,93,0.00,,,0.00,0,Wunderground v.1.15,2013-12-02 11:43:00,
2013-12-02 06:48:00,32.6,30.8,30.00,ESE,110,0.0,0.0,93,0.00,,,0.00,0,Wunderground v.1.15,2013-12-02 11:48:00,
2013-12-02 06:53:00,32.7,30.9,30.01,ESE,110,0.0,0.0,93,0.00,,,0.00,0,Wunderground v.1.15,2013-12-02 11:53:00,
2013-12-02 06:58:00,32.8,31.0,30.00,ESE,110,0.0,0.0,93,0.00,,,0.00,0,Wunderground v.1.15,2013-12-02 11:58:00,
2013-12-02 07:03:00,32.8,31.0,30.00,ESE,110,0.0,0.0,93,0.00,,,0.00,0,Wunderground v.1.15,2013-12-02 12:03:00,
2013-12-02 07:08:00,32.8,31.0,30.00,ESE,110,0.0,0.0,93,0.00,,,0.00,0,Wunderground v.1.15,2013-12-02 12:08:00,
2013-12-02 07:13:00,32.8,31.0,30.00,ESE,110,0.0,0.0,93,0.00,,,0.00,0,Wunderground v.1.15,2013-12-02 12:13:00,
2013-12-02 07:18:00,32.8,31.0,30.00,ESE,110,0.0,0.0,93,0.00,,,0.00,0,Wunderground v.1.15,2013-12-02 12:18:00,
2013-12-02 07:23:00,32.9,30.8,30.00,ESE,110,0.0,0.0,92,0.00,,,0.00,0,Wunderground v.1.15,2013-12-02 12:23:00,
2013-12-02 07:28:00,32.9,30.8,30.00,ESE,110,0.0,0.0,92,0.00,,,0.00,0,Wunderground v.1.15,2013-12-02 12:28:00,
2013-12-02 07:33:00,32.9,30.8,30.00,ESE,110,0.0,0.0,92,0.00,,,0.00,0,Wunderground v.1.15,2013-12-02 12:33:00,
2013-12-02 07:39:00,32.9,30.8,30.00,ESE,110,0.0,0.0,92,0.00,,,0.00,0,Wunderground v.1.15,2013-12-02 12:39:00,
2013-12-02 07:44:00,33.0,31.2,30.00,ESE,110,0.0,0.0,93,0.00,,,0.00,0,Wunderground v.1.15,2013-12-02 12:44:00,
2013-12-02 07:49:00,33.0,30.9,30.00,ESE,110,0.0,0.0,92,0.00,,,0.00,9,Wunderground v.1.15,2013-12-02 12:49:00,
2013-12-02 07:55:00,33.1,31.0,30.00,ESE,110,0.0,0.0,92,0.00,,,0.00,9,Wunderground v.1.15,2013-12-02 12:55:00,
2013-12-02 08:00:00,33.1,31.0,30.00,ESE,110,0.0,0.0,92,0.00,,,0.00,11,Wunderground v.1.15,2013-12-02 13:00:00,
2013-12-02 08:05:00,33.2,31.1,30.00,ESE,110,0.0,0.0,92,0.00,,,0.00,12,Wunderground v.1.15,2013-12-02 13:05:00,
2013-12-02 08:10:00,33.2,31.4,30.00,ESE,110,0.0,0.0,93,0.00,,,0.00,14,Wunderground v.1.15,2013-12-02 13:10:00,
2013-12-02 08:15:00,33.3,31.2,30.00,ESE,110,0.0,0.0,92,0.00,,,0.00,16,Wunderground v.1.15,2013-12-02 13:15:00,
2013-12-02 08:20:00,33.4,31.3,30.00,ESE,110,0.0,0.0,92,0.00,,,0.00,16,Wunderground v.1.15,2013-12-02 13:20:00,
2013-12-02 08:25:00,33.5,31.4,30.00,ESE,110,0.0,0.0,92,0.00,,,0.00,18,Wunderground v.1.15,2013-12-02 13:25:00,
2013-12-02 08:30:00,33.5,31.2,30.01,ESE,110,0.0,0.0,91,0.00,,,0.00,18,Wunderground v.1.15,2013-12-02 13:30:00,
2013-12-02 08:35:00,33.7,31.1,30.01,ESE,110,0.0,0.0,90,0.00,,,0.00,18,Wunderground v.1.15,2013-12-02 13:35:00,
2013-12-02 08:40:00,33.8,31.5,30.01,ESE,110,0.0,0.0,91,0.00,,,0.00,19,Wunderground v.1.15,2013-12-02 13:40:00,
2013-12-02 08:45:00,33.9,31.6,30.01,ESE,110,0.0,0.0,91,0.00,,,0.00,21,Wunderground v.1.15,2013-12-02 13:45:00,
2013-12-02 08:50:00,34.0,31.4,30.01,ESE,110,0.0,0.0,90,0.00,,,0.00,25,Wunderground v.1.15,2013-12-02 13:50:00,
2013-12-02 08:55:00,34.1,31.5,30.01,ESE,110,0.0,0.0,90,0.00,,,0.00,25,Wunderground v.1.15,2013-12-02 13:55:00,
2013-12-02 09:00:00,34.2,31.6,30.01,ESE,110,0.0,0.0,90,0.00,,,0.00,26,Wunderground v.1.15,2013-12-02 14:00:00,
2013-12-02 09:05:00,34.4,31.5,30.01,ESE,110,0.0,0.0,89,0.00,,,0.00,30,Wunderground v.1.15,2013-12-02 14:05:00,
2013-12-02 09:10:00,34.5,31.6,30.01,ESE,110,0.0,0.0,89,0.00,,,0.00,28,Wunderground v.1.15,2013-12-02 14:10:00,
2013-12-02 09:15:00,34.6,31.7,30.01,ESE,110,0.0,0.0,89,0.00,,,0.00,23,Wunderground v.1.15,2013-12-02 14:15:00,
2013-12-02 09:20:00,34.8,31.6,30.01,ESE,110,0.0,0.0,88,0.00,,,0.00,25,Wunderground v.1.15,2013-12-02 14:20:00,
2013-12-02 09:25:00,34.9,31.7,30.01,ESE,110,0.0,0.0,88,0.00,,,0.00,25,Wunderground v.1.15,2013-12-02 14:25:00,
2013-12-02 09:30:00,35.0,31.8,30.01,ESE,110,0.0,0.0,88,0.00,,,0.00,19,Wunderground v.1.15,2013-12-02 14:30:00,
2013-12-02 09:35:00,35.2,32.0,30.01,ESE,110,0.0,0.0,88,0.00,,,0.00,19,Wunderground v.1.15,2013-12-02 14:35:00,
2013-12-02 09:40:00,35.3,31.8,30.01,ESE,110,0.0,0.0,87,0.00,,,0.00,23,Wunderground v.1.15,2013-12-02 14:40:00,
2013-12-02 09:45:00,35.4,31.9,30.01,ESE,110,0.0,0.0,87,0.00,,,0.00,25,Wunderground v.1.15,2013-12-02 14:45:00,
2013-12-02 09:50:00,35.5,32.0,30.01,ESE,110,0.0,0.0,87,0.00,,,0.00,26,Wunderground v.1.15,2013-12-02 14:50:00,
2013-12-02 09:55:00,35.6,32.1,30.01,ESE,110,0.0,0.0,87,0.00,,,0.00,30,Wunderground v.1.15,2013-12-02 14:55:00,
2013-12-02 10:00:00,35.7,31.9,30.01,ESE,110,0.0,0.0,86,0.00,,,0.00,33,Wunderground v.1.15,2013-12-02 15:00:00,
2013-12-02 10:06:00,35.9,32.4,30.01,ESE,110,0.0,0.0,87,0.00,,,0.00,35,Wunderground v.1.15,2013-12-02 15:06:00,
2013-12-02 10:11:00,36.0,32.2,30.01,ESE,110,0.0,0.0,86,0.00,,,0.00,37,Wunderground v.1.15,2013-12-02 15:11:00,
2013-12-02 10:16:00,36.1,32.3,30.01,ESE,110,0.0,0.0,86,0.00,,,0.00,35,Wunderground v.1.15,2013-12-02 15:16:00,
2013-12-02 10:21:00,36.3,32.2,30.01,ESE,110,0.0,0.0,85,0.00,,,0.00,39,Wunderground v.1.15,2013-12-02 15:21:00,
2013-12-02 10:26:00,36.5,32.7,30.01,ESE,110,0.0,0.0,86,0.00,,,0.00,42,Wunderground v.1.15,2013-12-02 15:26:00,
2013-12-02 10:31:00,36.6,32.5,30.01,ESE,110,0.0,0.0,85,0.00,,,0.00,42,Wunderground v.1.15,2013-12-02 15:31:00,
2013-12-02 10:36:00,36.7,32.6,30.01,ESE,110,0.0,0.0,85,0.00,,,0.00,44,Wunderground v.1.15,2013-12-02 15:36:00,
2013-12-02 10:41:00,36.9,32.8,30.00,ESE,110,0.0,0.0,85,0.00,,,0.00,47,Wunderground v.1.15,2013-12-02 15:41:00,
2013-12-02 10:46:00,37.0,32.6,30.00,ESE,110,0.0,0.0,84,0.00,,,0.00,53,Wunderground v.1.15,2013-12-02 15:46:00,
2013-12-02 10:51:00,37.2,32.8,30.00,ESE,110,0.0,0.0,84,0.00,,,0.00,58,Wunderground v.1.15,2013-12-02 15:51:00,
2013-12-02 10:56:00,37.5,33.1,30.00,ESE,110,0.0,0.0,84,0.00,,,0.00,67,Wunderground v.1.15,2013-12-02 15:56:00,
2013-12-02 11:02:00,37.9,33.2,30.00,ESE,110,0.0,0.0,83,0.00,,,0.00,72,Wunderground v.1.15,2013-12-02 16:02:00,
2013-12-02 11:07:00,38.2,33.2,30.00,ESE,110,0.0,0.0,82,0.00,,,0.00,76,Wunderground v.1.15,2013-12-02 16:07:00,
2013-12-02 11:12:00,38.5,33.2,29.99,ESE,110,0.0,0.0,81,0.00,,,0.00,79,Wunderground v.1.15,2013-12-02 16:12:00,
2013-12-02 11:17:00,38.8,32.8,29.99,ESE,110,0.0,0.0,79,0.00,,,0.00,84,Wunderground v.1.15,2013-12-02 16:17:00,
2013-12-02 11:22:00,39.1,32.8,29.99,ESE,110,0.0,0.0,78,0.00,,,0.00,93,Wunderground v.1.15,2013-12-02 16:22:00,
2013-12-02 11:27:00,39.4,32.8,29.98,ESE,110,0.0,0.0,77,0.00,,,0.00,105,Wunderground v.1.15,2013-12-02 16:27:00,
2013-12-02 11:32:00,39.7,33.1,29.98,NE,54,0.0,0.0,77,0.00,,,0.00,109,Wunderground v.1.15,2013-12-02 16:32:00,
2013-12-02 11:37:00,40.1,33.8,29.98,NE,54,0.0,0.0,78,0.00,,,0.00,113,Wunderground v.1.15,2013-12-02 16:37:00,
2013-12-02 11:42:00,40.5,33.5,29.98,NE,54,0.0,0.0,76,0.00,,,0.00,118,Wunderground v.1.15,2013-12-02 16:42:00,
2013-12-02 11:47:00,40.9,33.2,29.98,NE,54,0.0,0.0,74,0.00,,,0.00,121,Wunderground v.1.15,2013-12-02 16:47:00,
2013-12-02 11:53:00,41.4,33.4,29.97,NE,54,0.0,0.0,73,0.00,,,0.00,120,Wunderground v.1.15,2013-12-02 16:53:00,
2013-12-02 11:58:00,42.0,34.0,29.97,NE,40,0.0,0.0,73,0.00,,,0.00,139,Wunderground v.1.15,2013-12-02 16:58:00,
2013-12-02 12:03:00,42.6,33.9,29.97,NE,40,0.0,0.0,71,0.00,,,0.00,132,Wunderground v.1.15,2013-12-02 17:03:00,
2013-12-02 12:08:00,43.0,33.2,29.97,NE,40,0.0,0.0,68,0.00,,,0.00,98,Wunderground v.1.15,2013-12-02 17:08:00,
2013-12-02 12:13:00,43.3,32.7,29.97,ESE,119,0.0,0.0,66,0.00,,,0.00,76,Wunderground v.1.15,2013-12-02 17:13:00,
2013-12-02 12:18:00,43.5,32.1,29.97,ESE,119,0.0,0.0,64,0.00,,,0.00,70,Wunderground v.1.15,2013-12-02 17:18:00,
2013-12-02 12:23:00,43.6,32.6,29.96,West,260,0.0,0.0,65,0.00,,,0.00,70,Wunderground v.1.15,2013-12-02 17:23:00,
2013-12-02 12:28:00,43.8,33.2,29.96,West,260,0.0,0.0,66,0.00,,,0.00,70,Wunderground v.1.15,2013-12-02 17:28:00,
2013-12-02 12:33:00,43.9,32.5,29.96,West,260,0.0,0.0,64,0.00,,,0.00,74,Wunderground v.1.15,2013-12-02 17:33:00,
2013-12-02 12:38:00,44.0,33.4,29.96,West,260,0.0,0.0,66,0.00,,,0.00,79,Wunderground v.1.15,2013-12-02 17:38:00,
2013-12-02 12:43:00,44.2,33.2,29.96,WSW,252,0.0,0.0,65,0.00,,,0.00,86,Wunderground v.1.15,2013-12-02 17:43:00,
2013-12-02 12:48:00,44.5,33.5,29.95,NW,319,0.0,1.0,65,0.00,,,0.00,130,Wunderground v.1.15,2013-12-02 17:48:00,
2013-12-02 12:53:00,44.8,33.4,29.95,NNW,337,0.0,0.0,64,0.00,,,0.00,111,Wunderground v.1.15,2013-12-02 17:53:00,
2013-12-02 12:58:00,44.9,32.7,29.95,NNW,337,0.0,0.0,62,0.00,,,0.00,95,Wunderground v.1.15,2013-12-02 17:58:00,
2013-12-02 13:03:00,45.0,32.8,29.95,NNW,337,0.0,0.0,62,0.00,,,0.00,90,Wunderground v.1.15,2013-12-02 18:03:00,
2013-12-02 13:08:00,45.0,32.8,29.94,NNW,337,0.0,0.0,62,0.00,,,0.00,84,Wunderground v.1.15,2013-12-02 18:08:00,
2013-12-02 13:13:00,45.0,32.8,29.94,NNW,337,0.0,0.0,62,0.00,,,0.00,102,Wunderground v.1.15,2013-12-02 18:13:00,
2013-12-02 13:18:00,45.2,33.3,29.94,NW,325,0.0,0.0,63,0.00,,,0.00,151,Wunderground v.1.15,2013-12-02 18:18:00,
2013-12-02 13:23:00,45.8,33.5,29.93,WNW,293,0.0,2.0,62,0.00,,,0.00,206,Wunderground v.1.15,2013-12-02 18:23:00,
2013-12-02 13:28:00,46.6,33.9,29.93,NNW,327,0.0,2.0,61,0.00,,,0.00,134,Wunderground v.1.15,2013-12-02 18:28:00,
2013-12-02 13:33:00,46.9,32.9,29.93,NNW,344,0.0,0.0,58,0.00,,,0.00,186,Wunderground v.1.15,2013-12-02 18:33:00,
2013-12-02 13:38:00,46.6,32.6,29.92,WNW,285,0.0,0.0,58,0.00,,,0.00,111,Wunderground v.1.15,2013-12-02 18:38:00,
2013-12-02 13:43:00,47.8,33.7,29.92,NNE,29,0.0,0.0,58,0.00,,,0.00,158,Wunderground v.1.15,2013-12-02 18:43:00,
2013-12-02 13:49:00,47.8,34.2,29.92,NE,43,0.0,0.0,59,0.00,,,0.00,183,Wunderground v.1.15,2013-12-02 18:49:00,
2013-12-02 13:54:00,47.9,32.9,29.92,NW,310,2.0,4.0,56,0.00,,,0.00,137,Wunderground v.1.15,2013-12-02 18:54:00,
2013-12-02 14:00:00,47.7,33.2,29.92,North,360,0.0,4.0,57,0.00,,,0.00,135,Wunderground v.1.15,2013-12-02 19:00:00,
2013-12-02 14:05:00,47.8,32.4,29.92,ENE,58,0.0,1.0,55,0.00,,,0.00,141,Wunderground v.1.15,2013-12-02 19:05:00,
2013-12-02 14:10:00,47.3,33.3,29.92,SE,146,0.0,0.0,58,0.00,,,0.00,97,Wunderground v.1.15,2013-12-02 19:10:00,
2013-12-02 14:15:00,47.2,32.7,29.92,SE,146,0.0,1.0,57,0.00,,,0.00,137,Wunderground v.1.15,2013-12-02 19:15:00,
2013-12-02 14:20:00,47.4,32.9,29.92,SSE,147,0.0,0.0,57,0.00,,,0.00,132,Wunderground v.1.15,2013-12-02 19:20:00,
2013-12-02 14:25:00,48.0,33.9,29.92,ESE,108,0.0,0.0,58,0.00,,,0.00,128,Wunderground v.1.15,2013-12-02 19:25:00,
2013-12-02 14:30:00,47.9,33.4,29.92,NE,51,0.0,0.0,57,0.00,,,0.00,128,Wunderground v.1.15,2013-12-02 19:30:00,
2013-12-02 14:36:00,47.6,33.1,29.92,SE,143,0.0,2.0,57,0.00,,,0.00,137,Wunderground v.1.15,2013-12-02 19:36:00,
2013-12-02 14:41:00,47.5,33.0,29.92,SSE,152,0.0,1.0,57,0.00,,,0.00,65,Wunderground v.1.15,2013-12-02 19:41:00,
2013-12-02 14:46:00,47.4,33.8,29.92,SSE,152,0.0,1.0,59,0.00,,,0.00,58,Wunderground v.1.15,2013-12-02 19:46:00,
2013-12-02 14:51:00,47.3,33.7,29.92,SSE,152,0.0,0.0,59,0.00,,,0.00,60,Wunderground v.1.15,2013-12-02 19:51:00,
2013-12-02 14:56:00,47.0,33.4,29.92,SSE,152,0.0,0.0,59,0.00,,,0.00,53,Wunderground v.1.15,2013-12-02 19:56:00,
2013-12-02 15:01:00,46.8,33.6,29.93,SSE,152,0.0,0.0,60,0.00,,,0.00,44,Wunderground v.1.15,2013-12-02 20:01:00,
2013-12-02 15:06:00,46.7,34.0,29.93,SSE,152,0.0,0.0,61,0.00,,,0.00,39,Wunderground v.1.15,2013-12-02 20:06:00,
2013-12-02 15:11:00,46.5,34.6,29.94,SSE,152,0.0,0.0,63,0.00,,,0.00,37,Wunderground v.1.15,2013-12-02 20:11:00,
2013-12-02 15:16:00,46.5,35.4,29.94,SSE,152,0.0,0.0,65,0.00,,,0.00,32,Wunderground v.1.15,2013-12-02 20:16:00,
2013-12-02 15:21:00,46.4,35.3,29.94,SSE,152,0.0,0.0,65,0.00,,,0.00,26,Wunderground v.1.15,2013-12-02 20:21:00,
2013-12-02 15:26:00,46.4,35.3,29.94,SSE,152,0.0,0.0,65,0.00,,,0.00,23,Wunderground v.1.15,2013-12-02 20:26:00,
2013-12-02 15:32:00,46.4,34.9,29.95,SSE,152,0.0,0.0,64,0.00,,,0.00,21,Wunderground v.1.15,2013-12-02 20:32:00,
2013-12-02 15:37:00,46.3,35.2,29.95,SSE,152,0.0,0.0,65,0.00,,,0.00,19,Wunderground v.1.15,2013-12-02 20:37:00,
2013-12-02 15:42:00,46.2,35.5,29.95,South,171,0.0,0.0,66,0.00,,,0.00,16,Wunderground v.1.15,2013-12-02 20:42:00,
2013-12-02 15:47:00,46.1,35.4,29.95,South,171,0.0,0.0,66,0.00,,,0.00,14,Wunderground v.1.15,2013-12-02 20:47:00,
2013-12-02 15:52:00,45.9,34.4,29.95,South,171,0.0,0.0,64,0.00,,,0.00,12,Wunderground v.1.15,2013-12-02 20:52:00,
2013-12-02 15:57:00,45.8,34.3,29.95,South,179,0.0,2.0,64,0.00,,,0.00,11,Wunderground v.1.15,2013-12-02 20:57:00,
2013-12-02 16:03:00,45.8,33.9,29.95,South,179,0.0,1.0,63,0.00,,,0.00,9,Wunderground v.1.15,2013-12-02 21:03:00,
2013-12-02 16:08:00,45.8,34.3,29.95,South,169,0.0,1.0,64,0.00,,,0.00,5,Wunderground v.1.15,2013-12-02 21:08:00,
2013-12-02 16:13:00,45.7,33.8,29.95,South,169,0.0,0.0,63,0.00,,,0.00,0,Wunderground v.1.15,2013-12-02 21:13:00,
2013-12-02 16:18:00,45.5,34.8,29.95,South,169,0.0,0.0,66,0.00,,,0.00,0,Wunderground v.1.15,2013-12-02 21:18:00,
2013-12-02 16:23:00,45.3,34.2,29.95,South,169,0.0,0.0,65,0.00,,,0.00,0,Wunderground v.1.15,2013-12-02 21:23:00,
2013-12-02 16:28:00,45.0,35.1,29.94,South,169,0.0,0.0,68,0.00,,,0.00,0,Wunderground v.1.15,2013-12-02 21:28:00,
2013-12-02 16:33:00,44.6,34.7,29.95,South,169,0.0,0.0,68,0.00,,,0.00,0,Wunderground v.1.15,2013-12-02 21:33:00,
2013-12-02 16:38:00,44.2,34.3,29.94,South,169,0.0,0.0,68,0.00,,,0.00,0,Wunderground v.1.15,2013-12-02 21:38:00,
2013-12-02 16:43:00,43.8,34.6,29.94,South,169,0.0,0.0,70,0.00,,,0.00,0,Wunderground v.1.15,2013-12-02 21:43:00,
2013-12-02 16:48:00,43.4,35.3,29.94,South,169,0.0,0.0,73,0.00,,,0.00,0,Wunderground v.1.15,2013-12-02 21:48:00,
2013-12-02 16:53:00,42.9,34.5,29.94,South,169,0.0,0.0,72,0.00,,,0.00,0,Wunderground v.1.15,2013-12-02 21:53:00,
2013-12-02 16:58:00,42.5,34.1,29.94,South,169,0.0,0.0,72,0.00,,,0.00,0,Wunderground v.1.15,2013-12-02 21:58:00,
2013-12-02 17:03:00,42.1,34.1,29.94,South,169,0.0,0.0,73,0.00,,,0.00,0,Wunderground v.1.15,2013-12-02 22:03:00,
2013-12-02 17:08:00,41.8,34.1,29.94,South,169,0.0,0.0,74,0.00,,,0.00,0,Wunderground v.1.15,2013-12-02 22:08:00,
2013-12-02 17:13:00,41.3,34.3,29.94,South,169,0.0,0.0,76,0.00,,,0.00,0,Wunderground v.1.15,2013-12-02 22:13:00,
2013-12-02 17:18:00,40.7,33.7,29.94,South,169,0.0,0.0,76,0.00,,,0.00,0,Wunderground v.1.15,2013-12-02 22:18:00,
2013-12-02 17:23:00,40.2,33.6,29.94,South,169,0.0,0.0,77,0.00,,,0.00,0,Wunderground v.1.15,2013-12-02 22:23:00,
2013-12-02 17:29:00,39.7,33.4,29.93,South,169,0.0,0.0,78,0.00,,,0.00,0,Wunderground v.1.15,2013-12-02 22:29:00,
2013-12-02 17:34:00,39.2,33.2,29.93,South,169,0.0,0.0,79,0.00,,,0.00,0,Wunderground v.1.15,2013-12-02 22:34:00,
2013-12-02 17:39:00,38.7,33.1,29.93,South,169,0.0,0.0,80,0.00,,,0.00,0,Wunderground v.1.15,2013-12-02 22:39:00,
2013-12-02 17:44:00,38.2,32.9,29.93,South,169,0.0,0.0,81,0.00,,,0.00,0,Wunderground v.1.15,2013-12-02 22:44:00,
2013-12-02 17:49:00,37.8,32.8,29.93,South,169,0.0,0.0,82,0.00,,,0.00,0,Wunderground v.1.15,2013-12-02 22:49:00,
2013-12-02 17:55:00,37.5,32.8,29.92,South,169,0.0,0.0,83,0.00,,,0.00,0,Wunderground v.1.15,2013-12-02 22:55:00,
2013-12-02 18:00:00,37.1,32.7,29.92,South,169,0.0,0.0,84,0.00,,,0.00,0,Wunderground v.1.15,2013-12-02 23:00:00,
2013-12-02 18:05:00,36.9,32.8,29.93,South,169,0.0,1.0,85,0.00,,,0.00,0,Wunderground v.1.15,2013-12-02 23:05:00,
2013-12-02 18:10:00,36.9,32.8,29.93,South,169,0.0,0.0,85,0.00,,,0.00,0,Wunderground v.1.15,2013-12-02 23:10:00,
2013-12-02 18:15:00,36.8,32.7,29.93,South,169,0.0,0.0,85,0.00,,,0.00,0,Wunderground v.1.15,2013-12-02 23:15:00,
2013-12-02 18:20:00,36.6,32.5,29.93,South,169,0.0,0.0,85,0.00,,,0.00,0,Wunderground v.1.15,2013-12-02 23:20:00,
2013-12-02 18:25:00,36.3,32.5,29.93,South,169,0.0,0.0,86,0.00,,,0.00,0,Wunderground v.1.15,2013-12-02 23:25:00,
2013-12-02 18:30:00,36.1,32.6,29.93,South,169,0.0,0.0,87,0.00,,,0.00,0,Wunderground v.1.15,2013-12-02 23:30:00,
2013-12-02 18:36:00,35.8,32.0,29.93,South,169,0.0,0.0,86,0.00,,,0.00,0,Wunderground v.1.15,2013-12-02 23:36:00,
2013-12-02 18:41:00,35.6,31.8,29.93,South,169,0.0,0.0,86,0.00,,,0.00,0,Wunderground v.1.15,2013-12-02 23:41:00,
2013-12-02 18:46:00,35.3,31.5,29.94,South,169,0.0,0.0,86,0.00,,,0.00,0,Wunderground v.1.15,2013-12-02 23:46:00,
2013-12-02 18:51:00,34.9,31.1,29.94,South,169,0.0,0.0,86,0.00,,,0.00,0,Wunderground v.1.15,2013-12-02 23:51:00,
2013-12-02 18:56:00,34.5,31.3,29.93,South,169,0.0,0.0,88,0.00,,,0.00,0,Wunderground v.1.15,2013-12-02 23:56:00,
2013-12-02 19:01:00,34.1,30.6,29.93,South,169,0.0,0.0,87,0.00,,,0.00,0,Wunderground v.1.15,2013-12-03 00:01:00,
2013-12-02 19:07:00,33.6,30.4,29.93,SE,143,0.0,0.0,88,0.00,,,0.00,0,Wunderground v.1.15,2013-12-03 00:07:00,
2013-12-02 19:12:00,33.2,30.0,29.93,SE,143,0.0,0.0,88,0.00,,,0.00,0,Wunderground v.1.15,2013-12-03 00:12:00,
2013-12-02 19:17:00,32.7,29.5,29.93,SE,143,0.0,0.0,88,0.00,,,0.00,0,Wunderground v.1.15,2013-12-03 00:17:00,
2013-12-02 19:22:00,32.2,29.3,29.93,SE,141,0.0,0.0,89,0.00,,,0.00,0,Wunderground v.1.15,2013-12-03 00:22:00,
2013-12-02 19:27:00,32.1,29.8,29.93,SE,141,0.0,0.0,91,0.00,,,0.00,0,Wunderground v.1.15,2013-12-03 00:27:00,
2013-12-02 19:32:00,31.8,29.2,29.93,SE,141,0.0,0.0,90,0.00,,,0.00,0,Wunderground v.1.15,2013-12-03 00:32:00,
2013-12-02 19:37:00,31.5,28.9,29.93,SE,141,0.0,0.0,90,0.00,,,0.00,0,Wunderground v.1.15,2013-12-03 00:37:00,
2013-12-02 19:42:00,31.1,28.5,29.93,SE,141,0.0,0.0,90,0.00,,,0.00,0,Wunderground v.1.15,2013-12-03 00:42:00,
2013-12-02 19:47:00,30.9,28.6,29.93,SE,141,0.0,0.0,91,0.00,,,0.00,0,Wunderground v.1.15,2013-12-03 00:47:00,
2013-12-02 19:52:00,30.7,28.4,29.93,SE,141,0.0,0.0,91,0.00,,,0.00,0,Wunderground v.1.15,2013-12-03 00:52:00,
2013-12-02 19:57:00,30.6,28.6,29.93,SE,141,0.0,0.0,92,0.00,,,0.00,0,Wunderground v.1.15,2013-12-03 00:57:00,
2013-12-02 20:02:00,30.3,28.0,29.93,SE,141,0.0,0.0,91,0.00,,,0.00,0,Wunderground v.1.15,2013-12-03 01:02:00,
2013-12-02 20:07:00,30.1,27.8,29.93,SE,141,0.0,0.0,91,0.00,,,0.00,0,Wunderground v.1.15,2013-12-03 01:07:00,
2013-12-02 20:12:00,29.9,27.9,29.93,SE,141,0.0,0.0,92,0.00,,,0.00,0,Wunderground v.1.15,2013-12-03 01:12:00,
2013-12-02 20:17:00,29.9,28.1,29.94,SE,141,0.0,0.0,93,0.00,,,0.00,0,Wunderground v.1.15,2013-12-03 01:17:00,
2013-12-02 20:22:00,29.8,28.0,29.94,SE,141,0.0,0.0,93,0.00,,,0.00,0,Wunderground v.1.15,2013-12-03 01:22:00,
2013-12-02 20:28:00,29.7,27.9,29.94,SE,141,0.0,0.0,93,0.00,,,0.00,0,Wunderground v.1.15,2013-12-03 01:28:00,
2013-12-02 20:33:00,29.6,27.8,29.94,SE,141,0.0,0.0,93,0.00,,,0.00,0,Wunderground v.1.15,2013-12-03 01:33:00,
2013-12-02 20:38:00,29.5,27.7,29.94,SE,142,0.0,0.0,93,0.00,,,0.00,0,Wunderground v.1.15,2013-12-03 01:38:00,
2013-12-02 20:43:00,29.4,27.6,29.94,SE,141,0.0,0.0,93,0.00,,,0.00,0,Wunderground v.1.15,2013-12-03 01:43:00,
2013-12-02 20:48:00,29.2,27.4,29.94,SE,141,0.0,0.0,93,0.00,,,0.00,0,Wunderground v.1.15,2013-12-03 01:48:00,
2013-12-02 20:53:00,29.0,27.2,29.94,SE,141,0.0,0.0,93,0.00,,,0.00,0,Wunderground v.1.15,2013-12-03 01:53:00,
2013-12-02 20:58:00,28.9,27.1,29.94,SE,141,0.0,0.0,93,0.00,,,0.00,0,Wunderground v.1.15,2013-12-03 01:58:00,
2013-12-02 21:03:00,28.8,27.3,29.94,SE,141,0.0,0.0,94,0.00,,,0.00,0,Wunderground v.1.15,2013-12-03 02:03:00,
2013-12-02 21:08:00,28.7,26.9,29.94,SE,141,0.0,0.0,93,0.00,,,0.00,0,Wunderground v.1.15,2013-12-03 02:08:00,
2013-12-02 21:13:00,28.5,27.0,29.94,SE,141,0.0,0.0,94,0.00,,,0.00,0,Wunderground v.1.15,2013-12-03 02:13:00,
2013-12-02 21:18:00,28.4,26.9,29.94,SE,141,0.0,0.0,94,0.00,,,0.00,0,Wunderground v.1.15,2013-12-03 02:18:00,
2013-12-02 21:23:00,28.2,26.4,29.94,SE,141,0.0,0.0,93,0.00,,,0.00,0,Wunderground v.1.15,2013-12-03 02:23:00,
2013-12-02 21:28:00,28.0,26.5,29.94,SE,141,0.0,0.0,94,0.00,,,0.00,0,Wunderground v.1.15,2013-12-03 02:28:00,
2013-12-02 21:33:00,27.9,26.4,29.94,SE,141,0.0,0.0,94,0.00,,,0.00,0,Wunderground v.1.15,2013-12-03 02:33:00,
2013-12-02 21:38:00,28.0,26.8,29.94,SE,141,0.0,0.0,95,0.00,,,0.00,0,Wunderground v.1.15,2013-12-03 02:38:00,
2013-12-02 21:43:00,28.0,26.5,29.94,SE,141,0.0,0.0,94,0.00,,,0.00,0,Wunderground v.1.15,2013-12-03 02:43:00,
2013-12-02 21:48:00,27.8,26.3,29.94,SE,141,0.0,0.0,94,0.00,,,0.00,0,Wunderground v.1.15,2013-12-03 02:48:00,
2013-12-02 21:53:00,27.6,26.1,29.94,SE,141,0.0,0.0,94,0.00,,,0.00,0,Wunderground v.1.15,2013-12-03 02:53:00,
2013-12-02 21:59:00,27.5,26.0,29.95,SE,141,0.0,0.0,94,0.00,,,0.00,0,Wunderground v.1.15,2013-12-03 02:59:00,
2013-12-02 22:04:00,27.5,26.3,29.95,SE,141,0.0,0.0,95,0.00,,,0.00,0,Wunderground v.1.15,2013-12-03 03:04:00,
2013-12-02 22:09:00,27.6,26.4,29.95,SE,141,0.0,0.0,95,0.00,,,0.00,0,Wunderground v.1.15,2013-12-03 03:09:00,
2013-12-02 22:14:00,27.5,26.3,29.95,SE,141,0.0,0.0,95,0.00,,,0.00,0,Wunderground v.1.15,2013-12-03 03:14:00,
2013-12-02 22:19:00,27.4,26.2,29.94,SE,142,0.0,0.0,95,0.00,,,0.00,0,Wunderground v.1.15,2013-12-03 03:19:00,
2013-12-02 22:24:00,27.3,25.8,29.94,SE,141,0.0,0.0,94,0.00,,,0.00,0,Wunderground v.1.15,2013-12-03 03:24:00,
2013-12-02 22:29:00,27.0,25.5,29.95,SE,141,0.0,0.0,94,0.00,,,0.00,0,Wunderground v.1.15,2013-12-03 03:29:00,
2013-12-02 22:34:00,26.9,25.4,29.95,SE,141,0.0,0.0,94,0.00,,,0.00,0,Wunderground v.1.15,2013-12-03 03:34:00,
2013-12-02 22:39:00,26.9,25.7,29.95,SE,141,0.0,0.0,95,0.00,,,0.00,0,Wunderground v.1.15,2013-12-03 03:39:00,
2013-12-02 22:44:00,26.9,25.7,29.95,SE,141,0.0,0.0,95,0.00,,,0.00,0,Wunderground v.1.15,2013-12-03 03:44:00,
2013-12-02 22:49:00,26.8,25.6,29.95,SE,141,0.0,0.0,95,0.00,,,0.00,0,Wunderground v.1.15,2013-12-03 03:49:00,
2013-12-02 22:55:00,26.5,25.3,29.95,SE,141,0.0,0.0,95,0.00,,,0.00,0,Wunderground v.1.15,2013-12-03 03:55:00,
2013-12-02 23:00:00,26.6,25.4,29.95,SE,141,0.0,0.0,95,0.00,,,0.00,0,Wunderground v.1.15,2013-12-03 04:00:00,
2013-12-02 23:05:00,26.5,25.3,29.95,SE,141,0.0,0.0,95,0.00,,,0.00,0,Wunderground v.1.15,2013-12-03 04:05:00,
2013-12-02 23:10:00,26.4,25.2,29.95,SE,141,0.0,0.0,95,0.00,,,0.00,0,Wunderground v.1.15,2013-12-03 04:10:00,
2013-12-02 23:15:00,26.3,25.1,29.95,SE,141,0.0,0.0,95,0.00,,,0.00,0,Wunderground v.1.15,2013-12-03 04:15:00,
2013-12-02 23:20:00,26.1,24.9,29.95,SE,141,0.0,0.0,95,0.00,,,0.00,0,Wunderground v.1.15,2013-12-03 04:20:00,
2013-12-02 23:25:00,26.1,24.9,29.95,SE,141,0.0,0.0,95,0.00,,,0.00,0,Wunderground v.1.15,2013-12-03 04:25:00,
2013-12-02 23:30:00,26.0,24.8,29.94,SE,141,0.0,0.0,95,0.00,,,0.00,0,Wunderground v.1.15,2013-12-03 04:30:00,
2013-12-02 23:35:00,26.0,24.8,29.94,SE,141,0.0,0.0,95,0.00,,,0.00,0,Wunderground v.1.15,2013-12-03 04:35:00,
2013-12-02 23:40:00,25.8,24.6,29.94,SE,141,0.0,0.0,95,0.00,,,0.00,0,Wunderground v.1.15,2013-12-03 04:40:00,
2013-12-02 23:45:00,25.7,24.5,29.94,SE,142,0.0,0.0,95,0.00,,,0.00,0,Wunderground v.1.15,2013-12-03 04:45:00,
2013-12-02 23:51:00,25.8,24.6,29.94,SE,141,0.0,0.0,95,0.00,,,0.00,0,Wunderground v.1.15,2013-12-03 04:51:00,
2013-12-02 23:56:00,25.9,24.9,29.94,SE,141,0.0,0.0,96,0.00,,,0.00,0,Wunderground v.1.15,2013-12-03 04:56:00,